CST,Max TemperatureF,Mean TemperatureF,Min TemperatureF,Max Dew PointF,MeanDew PointF,Min DewpointF,Max Humidity, Mean Humidity, Min Humidity, Max Sea Level PressureIn, Mean Sea Level PressureIn, Min Sea Level PressureIn, Max VisibilityMiles, Mean VisibilityMiles, Min VisibilityMiles, Max Wind SpeedMPH, Mean Wind SpeedMPH, Max Gust SpeedMPH,PrecipitationIn, CloudCover, Events, WindDirDegrees
2013-1-1,18,12,7,5,2,0,73,67,54,30.26,30.21,30.17,10,10,10,10,8,,0.00,0,,297
2013-1-2,28,17,6,16,10,1,79,65,49,30.21,30.15,30.08,10,10,10,12,7,,0.00,5,,219
2013-1-3,28,22,16,20,18,10,81,76,69,30.26,30.15,30.05,9,6,4,17,12,23,0.00,6,,264
2013-1-4,32,22,12,19,15,6,77,70,56,30.21,30.17,30.10,10,10,8,23,16,38,0.00,0,,252
2013-1-5,37,28,18,32,24,13,92,81,60,30.25,30.09,29.91,10,5,0,16,8,26,0.11,4,Fog-Snow,222
2013-1-6,35,26,18,31,22,13,85,77,64,30.33,30.09,29.88,10,7,3,20,13,26,0.00,4,,271
2013-1-7,41,29,17,25,19,12,88,69,47,30.32,30.19,30.08,10,8,4,21,10,29,0.00,0,,213
2013-1-8,42,34,27,28,26,22,81,70,55,30.16,30.09,29.99,10,7,4,15,8,24,0.00,1,,200
2013-1-9,44,36,27,29,25,20,78,65,45,30.49,30.23,29.96,10,10,10,30,16,38,0.00,0,,256
2013-1-10,43,32,21,37,29,18,93,81,62,30.53,30.23,29.91,10,7,2,16,6,23,0.54,4,Rain,129
2013-1-11,53,46,39,46,43,37,100,90,77,29.88,29.72,29.65,10,5,0,18,9,28,0.32,6,Fog-Rain,188
2013-1-12,53,40,28,45,31,21,81,73,63,29.98,29.86,29.68,10,8,2,21,15,29,0.11,4,Rain-Snow,268
2013-1-13,28,22,14,25,16,5,86,76,65,30.23,30.01,29.87,10,8,2,18,10,24,0.08,8,Rain-Snow,303
2013-1-14,25,18,10,9,7,5,77,66,46,30.47,30.42,30.26,10,10,10,13,8,,0.00,0,,262
2013-1-15,30,21,12,14,11,7,81,66,41,30.45,30.34,30.15,10,10,6,9,5,,0.00,0,,237
2013-1-16,35,26,17,28,20,10,81,69,46,30.11,29.95,29.76,10,10,8,24,11,39,0.00,5,,252
2013-1-17,30,23,10,20,8,3,81,57,39,30.43,30.30,30.06,10,10,10,14,8,20,0.00,0,,300
2013-1-18,44,29,14,28,20,7,81,63,51,30.45,30.13,29.86,10,10,10,25,10,38,0.00,3,,213
2013-1-19,44,35,21,33,27,6,70,63,41,29.90,29.78,29.68,10,10,10,38,19,52,0.00,3,,246
2013-1-20,19,14,9,5,0,-3,67,55,43,30.31,30.21,29.95,10,10,10,28,17,41,0.00,3,,293
2013-1-21,12,6,0,1,-5,-12,73,59,46,30.30,30.18,30.09,10,8,0,22,13,31,0.00,5,Snow,294
2013-1-22,9,2,-6,-5,-10,-15,69,57,48,30.40,30.36,30.30,10,10,10,18,11,24,0.00,0,,285
2013-1-23,19,11,3,12,5,-5,79,66,54,30.38,30.20,30.07,10,7,1,21,10,29,0.00,7,Snow,270
2013-1-24,19,11,3,7,1,-7,64,58,48,30.66,30.54,30.40,10,10,8,13,8,,0.00,3,,297
2013-1-25,24,20,16,18,12,4,84,71,50,30.36,30.10,29.95,10,6,1,14,9,20,0.05,7,Snow,220
2013-1-26,26,16,6,14,7,1,80,63,43,30.41,30.35,30.21,10,10,10,9,6,,0.00,1,,282
2013-1-27,35,30,24,34,24,16,93,79,66,30.38,30.13,29.89,10,4,0,20,10,28,0.08,7,Fog-Rain-Snow,161
2013-1-28,46,40,34,44,36,31,100,90,76,29.97,29.88,29.78,10,4,0,15,9,18,0.07,7,Fog-Rain-Thunderstorm,196
2013-1-29,62,50,37,57,47,36,100,92,82,29.83,29.56,29.43,7,2,0,17,8,24,1.50,8,Fog-Rain-Thunderstorm,188
2013-1-30,39,29,18,36,28,10,93,85,69,29.60,29.34,29.21,10,5,0,21,14,33,0.35,8,Fog-Rain-Snow,355
2013-1-31,18,12,5,12,6,-4,79,70,59,30.14,29.82,29.58,10,5,0,21,16,29,0.00,8,Snow,284